sat.trackr.live / text

‹ back to catalog

CONNECTA IOT-14

NORAD 67401 · 2026-004AQ

PAYLOAD ACTIVE UNKNOWN

§ Identity

Operator
Country
TURK
Launch date
2026-01-11
Launch site
AFWTR
Launch vehicle
Mass (kg)
RCS (m²)

External: N2YO · Heavens-Above · Gunter

§ Orbital elements

Epoch: 2026-09-20T22:22:52.267296Z

Period
94.78 min
Inclination
97.4578°
Eccentricity
0.0009806
Mean motion
15.19305463 rev/d
Perigee alt
501.2 km
Apogee alt
514.7 km
Semi-major
6,886.1 km
B*
2.6164e-4
RAAN
261.6585°
Arg perigee
19.3001°
Mean anomaly
340.8603°
Rev number
3,829

§ Raw data

CONNECTA IOT-141 67401U 26004AQ  26263.93254939  .00005461  00000+0  26164-3 0  99902 67401  97.4578 261.6585 0009806  19.3001 340.8603 15.19305463 38293

JSON: /api/v1/satellites/67401 · /tle

For live sub-satellite position, see the globe view (requires WebGL).

§ Visibility from observer

Set your observer location to see the next 7 days of passes ≥ 10°. The values pass through the URL so the page stays shareable.

No JS? Fill the form by hand. The geolocation button needs JavaScript.